Flag for Canada Weather past 2 weeks in Arviat, Nunavut, Canada

Now
55 °F

Passing clouds.


Feels Like: 54 °F
Forecast: 41 / 61 °F
Wind: 6 mph from Southeast

Location: Arviat Airport

Current Time: Jul 6, 2015 at 12:59:32 PM

Latest Report: Jul 6, 2015 at 12:05 PM


Visibility: 15 mi

Pressure: 29.85 "Hg

Humidity: 44%

Dew point: 34 °F

Location of ArviatLocation

Historic Weather in Arviat — Graph

°F

Arviat temperature yesterday

Maximum temperature yesterday: 50 °F (at 5:00 PM)
Minimum temperature yesterday: 41 °F (at 1:00 AM)
Average temperature yesterday: 45 °F

Past Weeks' High & Low Weather Summary

 TemperatureHumidityPressure
High68 °F (Jun 25, 6:00 PM)100% (Jun 23, 9:56 PM)30.02 "Hg (Jun 23, 9:56 PM)
Low36 °F (Jun 28, 4:00 AM)38% (Jun 25, 6:00 PM)29.52 "Hg (Jun 21, 11:00 AM)
Average49 °F77%29.85 "Hg
* Reported Jun 21 11:00 AM — Jul 6 11:00 AM, Arviat, Weather by CustomWeather, © 2015

Note: Actual official high and low records may vary slightly from our data, if they occured in-between our weather recording intervals... More about our weather records

Advertising

Arviat weather history for previous 24 hours

 ConditionsComfort  
Time TempWeatherWind HumidityBarometerVisibility
11:00 AM
Mon, Jul 6
54 °FPassing clouds.7 mph54%29.86 "Hg15 mi
10:00 AM57 °FPassing clouds.5 mph51%29.86 "Hg15 mi
9:00 AM54 °FPassing clouds.3 mph58%29.88 "Hg15 mi
8:00 AM50 °FPassing clouds.2 mph58%29.89 "Hg15 mi
7:00 AM48 °FPassing clouds.3 mph76%29.89 "Hg15 mi
6:00 AM45 °FSunny.2 mph87%29.90 "Hg9 mi
5:00 AM43 °FSunny.9 mph87%29.90 "Hg9 mi
4:00 AM41 °FClear.9 mph93%29.91 "Hg9 mi
3:00 AM41 °FClear.9 mph87%29.91 "Hg9 mi
2:00 AM41 °FOvercast.8 mph93%29.92 "Hg9 mi
1:00 AM43 °FOvercast.8 mph87%29.92 "Hg9 mi
12:00 AM43 °FOvercast.8 mph87%29.93 "Hg9 mi
11:00 PM
Sun, Jul 5
45 °FOvercast.7 mph76%29.95 "Hg9 mi
10:00 PM46 °FLow clouds.12 mph71%29.96 "Hg9 mi
9:00 PM48 °FLow clouds.13 mph66%29.96 "Hg9 mi
8:00 PM50 °FLow clouds.15 mph62%29.96 "Hg9 mi
7:00 PM50 °FLow clouds.15 mph67%29.97 "Hg9 mi
6:00 PM48 °FLow clouds.18 mph71%29.98 "Hg9 mi
5:00 PM50 °FLow clouds.20 mph67%29.98 "Hg9 mi
4:00 PM48 °FLow clouds.22 mph71%29.98 "Hg9 mi
3:00 PM48 °FOvercast.21 mph66%29.97 "Hg15 mi
2:00 PM48 °FOvercast.21 mph76%29.97 "Hg15 mi
1:00 PM46 °FOvercast.22 mph82%29.96 "Hg15 mi
12:00 PM46 °FOvercast.20 mph76%29.97 "Hg15 mi
Weather by CustomWeather, © 2015

See weather overviewHow to use our weather pages